sat.trackr.live / text

‹ back to catalog

LYNK TOWER 4

NORAD 55034 · 2023-001AB

PAYLOAD ACTIVE UNKNOWN

§ Identity

Operator
Country
US
Launch date
2023-01-03
Launch site
AFETR
Launch vehicle
Mass (kg)
RCS (m²)

External: N2YO · Heavens-Above · Gunter

§ Orbital elements

Epoch: 2026-09-21T17:17:55.161312Z

Period
93.84 min
Inclination
97.3097°
Eccentricity
0.0009303
Mean motion
15.34569235 rev/d
Perigee alt
455.8 km
Apogee alt
468.6 km
Semi-major
6,840.3 km
B*
1.4462e-4
RAAN
322.7488°
Arg perigee
126.3968°
Mean anomaly
233.8135°
Rev number
20,662

§ Raw data

LYNK TOWER 41 55034U 23001AB  26264.72077733  .00004770  00000+0  14462-3 0  99962 55034  97.3097 322.7488 0009303 126.3968 233.8135 15.34569235206622

JSON: /api/v1/satellites/55034 · /tle

For live sub-satellite position, see the globe view (requires WebGL).

§ Visibility from observer

Set your observer location to see the next 7 days of passes ≥ 10°. The values pass through the URL so the page stays shareable.

No JS? Fill the form by hand. The geolocation button needs JavaScript.

§ Radio — SatNOGS DB

ModeDescriptionDownlinkUplink
FM S-band telemetry 2.260 GHz

1 transmitter · refreshed weekly from db.satnogs.org